QPF
0.00 0.00 0.00 0.00 0.00 0.00 0.00 0.00 0.00 0.00 0.00 0.00 0.00 0.00 0.00 0.00 0.00 0.00 0.00 0.00 0.00 0.00 0.00 0.00 0.00 0.00 0.00 0.01 0.01 0.01 0.02 0.02 0.02 0.02 0.02 0.03 0.04 0.03 0.02 0.03 0.04 0.06 0.04 0.04
0.00 0.00 0.00 0.00 0.00 0.00 0.00 0.00 0.00 0.00 0.00 0.00 0.00 0.00 0.00 0.00 0.00 0.00 0.00 0.00 0.00 0.00 0.00 0.00 0.00 0.01 0.01 0.01 0.01 0.01 0.01 0.01 0.01 0.02 0.04 0.03 0.03 0.03 0.02 0.02 0.04 0.05 0.05 0.06
0.00 0.00 0.00 0.00 0.00 0.00 0.00 0.00 0.00 0.00 0.00 0.00 0.00 0.00 0.00 0.00 0.00 0.00 0.00 0.00 0.00 0.00 0.00 0.00 0.00 0.01 0.01 0.01 0.00 0.00 0.00 0.00 0.01 0.02 0.02 0.02 0.03 0.03 0.02 0.03 0.05 0.05 0.04 0.05
0.00 0.00 0.00 0.00 0.00 0.00 0.00 0.00 0.00 0.00 0.00 0.00 0.00 0.00 0.00 0.00 0.00 0.00 0.00 0.00 0.00 0.00 0.00 0.00 0.00 0.00 0.01 0.01 0.00 0.00 0.01 0.01 0.01 0.01 0.02 0.03 0.03 0.03 0.03 0.03 0.04 0.06 0.04 0.04
0.00 0.00 0.00 0.00 0.00 0.00 0.00 0.00 0.00 0.00 0.00 0.00 0.00 0.00 0.00 0.00 0.00 0.00 0.00 0.00 0.00 0.00 0.00 0.00 0.00 0.00 0.00 0.01 0.01 0.01 0.01 0.01 0.01 0.01 0.03 0.04 0.04 0.03 0.03 0.03 0.03 0.04 0.04 0.03
0.00 0.00 0.00 0.00 0.00 0.00 0.00 0.00 0.00 0.00 0.00 0.00 0.00 0.00 0.00 0.00 0.00 0.00 0.00 0.00 0.00 0.00 0.00 0.00 0.00 0.00 0.00 0.01 0.01 0.01 0.01 0.01 0.01 0.01 0.01 0.03 0.04 0.03 0.03 0.03 0.05 0.05 0.04 0.03
0.00 0.00 0.00 0.00 0.00 0.00 0.00 0.00 0.00 0.00 0.00 0.00 0.00 0.00 0.00 0.00 0.00 0.00 0.00 0.00 0.00 0.00 0.00 0.00 0.00 0.00 0.01 0.01 0.01 0.01 0.01 0.02 0.02 0.01 0.01 0.01 0.02 0.02 0.04 0.04 0.03 0.04 0.03 0.03
0.00 0.00 0.00 0.00 0.00 0.00 0.00 0.00 0.00 0.00 0.00 0.00 0.00 0.00 0.00 0.00 0.00 0.00 0.00 0.00 0.00 0.00 0.00 0.00 0.01 0.01 0.01 0.01 0.01 0.01 0.01 0.01 0.01 0.01 0.01 0.01 0.01 0.02 0.02 0.02 0.02 0.04 0.03 0.03
0.00 0.00 0.00 0.00 0.00 0.00 0.00 0.00 0.00 0.00 0.00 0.00 0.00 0.00 0.00 0.00 0.00 0.00 0.00 0.00 0.00 0.00 0.00 0.00 0.00 0.01 0.01 0.01 0.01 0.01 0.01 0.01 0.01 0.01 0.01 0.01 0.01 0.01 0.01 0.02 0.02 0.03 0.03 0.02
0.00 0.00 0.00 0.00 0.00 0.00 0.00 0.00 0.00 0.00 0.00 0.00 0.00 0.00 0.00 0.00 0.00 0.00 0.00 0.00 0.00 0.00 0.00 0.00 0.01 0.01 0.00 0.01 0.01 0.01 0.01 0.01 0.00 0.00 0.00 0.01 0.01 0.01 0.01 0.02 0.02 0.03 0.04 0.03
0.00 0.00 0.00 0.00 0.00 0.00 0.00 0.00 0.00 0.00 0.00 0.00 0.00 0.00 0.00 0.00 0.00 0.00 0.00 0.00 0.00 0.00 0.00 0.00 0.01 0.00 0.00 0.01 0.01 0.01 0.01 0.01 0.00 0.00 0.00 0.01 0.01 0.01 0.02 0.02 0.02 0.03 0.05 0.06
0.00 0.00 0.00 0.00 0.00 0.00 0.00 0.00 0.00 0.00 0.00 0.00 0.00 0.00 0.00 0.00 0.00 0.00 0.00 0.00 0.00 0.00 0.00 0.00 0.01 0.00 0.00 0.00 0.01 0.01 0.01 0.01 0.01 0.01 0.01 0.01 0.01 0.01 0.02 0.02 0.02 0.03 0.05 0.06
0.00 0.00 0.00 0.00 0.00 0.00 0.00 0.00 0.00 0.00 0.00 0.00 0.00 0.00 0.00 0.00 0.00 0.00 0.00 0.00 0.00 0.00 0.00 0.00 0.00 0.00 0.01 0.01 0.02 0.01 0.01 0.01 0.01 0.01 0.01 0.01 0.01 0.01 0.02 0.02 0.02 0.04 0.05 0.05
0.00 0.00 0.00 0.00 0.00 0.00 0.00 0.00 0.00 0.00 0.00 0.00 0.00 0.00 0.00 0.00 0.00 0.00 0.00 0.00 0.00 0.00 0.01 0.01 0.01 0.01 0.01 0.02 0.01 0.01 0.01 0.01 0.01 0.01 0.01 0.01 0.01 0.01 0.02 0.03 0.03 0.04 0.04 0.04
0.00 0.00 0.00 0.00 0.00 0.00 0.00 0.00 0.00 0.00 0.00 0.00 0.00 0.00 0.00 0.00 0.00 0.00 0.00 0.00 0.00 0.00 0.00 0.01 0.01 0.01 0.01 0.01 0.02 0.02 0.02 0.01 0.01 0.01 0.01 0.02 0.02 0.01 0.01 0.02 0.03 0.03 0.03 0.03
0.00 0.00 0.00 0.00 0.00 0.00 0.00 0.00 0.00 0.00 0.00 0.00 0.00 0.00 0.00 0.00 0.00 0.00 0.00 0.00 0.00 0.00 0.00 0.00 0.00 0.00 0.01 0.01 0.02 0.02 0.03 0.02 0.02 0.02 0.03 0.04 0.04 0.03 0.03 0.02 0.02 0.02 0.01 0.01
0.00 0.00 0.00 0.00 0.00 0.00 0.00 0.00 0.00 0.00 0.00 0.00 0.00 0.00 0.00 0.00 0.00 0.00 0.00 0.00 0.00 0.00 0.00 0.00 0.00 0.01 0.01 0.02 0.02 0.03 0.04 0.04 0.05 0.05 0.05 0.06 0.06 0.05 0.03 0.01 0.01 0.01 0.02 0.02
0.00 0.00 0.00 0.00 0.00 0.00 0.00 0.00 0.00 0.00 0.00 0.00 0.00 0.00 0.00 0.00 0.00 0.00 0.00 0.00 0.00 0.00 0.00 0.01 0.01 0.02 0.02 0.02 0.02 0.01 0.01 0.02 0.02 0.03 0.03 0.03 0.03 0.02 0.01 0.01 0.01 0.02 0.02 0.02
0.00 0.00 0.00 0.00 0.00 0.00 0.00 0.00 0.00 0.00 0.00 0.00 0.00 0.00 0.00 0.00 0.00 0.00 0.00 0.00 0.00 0.00 0.00 0.01 0.02 0.02 0.03 0.02 0.02 0.01 0.01 0.01 0.01 0.02 0.02 0.03 0.03 0.03 0.02 0.02 0.02 0.02 0.02 0.02
0.00 0.00 0.00 0.00 0.00 0.00 0.00 0.00 0.00 0.00 0.00 0.00 0.00 0.00 0.00 0.00 0.00 0.00 0.00 0.00 0.00 0.00 0.01 0.01 0.02 0.02 0.02 0.01 0.02 0.02 0.01 0.02 0.02 0.03 0.03 0.03 0.04 0.04 0.04 0.03 0.02 0.02 0.02 0.03
0.00 0.00 0.00 0.00 0.00 0.00 0.00 0.00 0.00 0.00 0.00 0.00 0.00 0.00 0.00 0.00 0.00 0.00 0.00 0.00 0.01 0.01 0.02 0.02 0.02 0.01 0.01 0.01 0.02 0.02 0.03 0.04 0.04 0.05 0.05 0.05 0.06 0.06 0.04 0.02 0.02 0.01 0.02 0.02
0.00 0.00 0.00 0.00 0.00 0.00 0.00 0.00 0.00 0.00 0.00 0.00 0.00 0.00 0.00 0.00 0.00 0.00 0.00 0.00 0.01 0.01 0.01 0.02 0.02 0.01 0.01 0.01 0.02 0.03 0.03 0.04 0.06 0.09 0.09 0.08 0.07 0.06 0.05 0.03 0.02 0.02 0.02 0.02
0.00 0.00 0.00 0.00 0.00 0.00 0.00 0.00 0.00 0.00 0.00 0.00 0.00 0.00 0.00 0.00 0.00 0.01 0.01 0.01 0.01 0.00 0.01 0.02 0.02 0.02 0.02 0.02 0.03 0.03 0.04 0.04 0.06 0.07 0.07 0.07 0.06 0.04 0.04 0.03 0.03 0.03 0.02 0.02
0.00 0.00 0.00 0.00 0.00 0.00 0.00 0.00 0.00 0.00 0.00 0.00 0.00 0.00 0.00 0.00 0.01 0.01 0.02 0.02 0.01 0.01 0.02 0.03 0.02 0.02 0.02 0.03 0.03 0.04 0.05 0.06 0.06 0.05 0.05 0.05 0.05 0.06 0.05 0.05 0.05 0.04 0.03 0.02
0.00 0.00 0.00 0.00 0.00 0.00 0.00 0.01 0.01 0.01 0.00 0.01 0.01 0.00 0.01 0.02 0.02 0.01 0.02 0.03 0.03 0.02 0.02 0.03 0.03 0.04 0.04 0.04 0.05 0.05 0.06 0.08 0.08 0.06 0.05 0.06 0.07 0.09 0.10 0.08 0.05 0.03 0.02 0.02
0.01 0.01 0.01 0.00 0.00 0.00 0.01 0.01 0.01 0.01 0.01 0.02 0.01 0.01 0.01 0.02 0.01 0.02 0.02 0.03 0.03 0.03 0.02 0.03 0.05 0.06 0.06 0.05 0.06 0.07 0.08 0.09 0.09 0.10 0.12 0.12 0.12 0.13 0.13 0.09 0.05 0.03 0.02 0.02
MSLP
1009.10 1009.75 1010.25 1010.60 1010.80 1010.89 1010.93 1010.96 1011.03 1011.17 1011.37 1011.61 1011.89 1012.15 1012.39 1012.58 1012.74 1012.87 1012.99 1013.12 1013.27 1013.46 1013.67 1013.92 1014.18 1014.45 1014.72 1014.98 1015.22 1015.44 1015.64 1015.81 1015.96 1016.08 1016.20 1016.30 1016.41 1016.53 1016.65 1016.79 1016.94 1017.08 1017.23 1017.36
1009.79 1010.30 1010.66 1010.88 1010.99 1011.03 1011.07 1011.14 1011.27 1011.47 1011.72 1011.98 1012.22 1012.40 1012.52 1012.58 1012.59 1012.60 1012.63 1012.71 1012.85 1013.08 1013.36 1013.69 1014.03 1014.37 1014.69 1014.98 1015.23 1015.44 1015.63 1015.79 1015.95 1016.08 1016.21 1016.32 1016.43 1016.52 1016.62 1016.71 1016.80 1016.89 1016.99 1017.10
1010.27 1010.64 1010.85 1010.95 1010.97 1010.98 1011.03 1011.17 1011.38 1011.66 1011.96 1012.24 1012.44 1012.55 1012.55 1012.45 1012.32 1012.20 1012.13 1012.17 1012.32 1012.59 1012.95 1013.37 1013.81 1014.23 1014.62 1014.94 1015.21 1015.43 1015.62 1015.78 1015.93 1016.08 1016.21 1016.33 1016.42 1016.50 1016.55 1016.59 1016.62 1016.66 1016.71 1016.79
1010.50 1010.72 1010.80 1010.79 1010.76 1010.77 1010.87 1011.09 1011.41 1011.78 1012.15 1012.44 1012.61 1012.63 1012.51 1012.27 1011.98 1011.73 1011.57 1011.55 1011.70 1012.01 1012.45 1012.97 1013.51 1014.01 1014.46 1014.83 1015.12 1015.36 1015.55 1015.71 1015.87 1016.02 1016.16 1016.28 1016.36 1016.41 1016.42 1016.41 1016.38 1016.36 1016.36 1016.40
1010.49 1010.58 1010.55 1010.48 1010.43 1010.47 1010.65 1010.97 1011.40 1011.88 1012.31 1012.63 1012.76 1012.70 1012.45 1012.06 1011.63 1011.24 1010.98 1010.91 1011.05 1011.39 1011.89 1012.49 1013.11 1013.69 1014.19 1014.61 1014.92 1015.17 1015.37 1015.54 1015.70 1015.86 1016.01 1016.13 1016.21 1016.24 1016.22 1016.15 1016.07 1015.99 1015.94 1015.93
1010.32 1010.31 1010.21 1010.10 1010.06 1010.17 1010.44 1010.87 1011.42 1011.99 1012.48 1012.81 1012.91 1012.76 1012.39 1011.86 1011.28 1010.76 1010.40 1010.27 1010.39 1010.74 1011.28 1011.93 1012.61 1013.24 1013.80 1014.24 1014.58 1014.84 1015.04 1015.22 1015.40 1015.57 1015.74 1015.87 1015.95 1015.97 1015.92 1015.82 1015.68 1015.54 1015.43 1015.38
1010.09 1010.01 1009.87 1009.77 1009.77 1009.94 1010.31 1010.85 1011.49 1012.13 1012.67 1012.99 1013.04 1012.81 1012.32 1011.66 1010.95 1010.32 1009.87 1009.66 1009.74 1010.08 1010.64 1011.31 1012.02 1012.69 1013.27 1013.73 1014.09 1014.35 1014.57 1014.77 1014.97 1015.17 1015.37 1015.52 1015.62 1015.64 1015.58 1015.44 1015.25 1015.06 1014.88 1014.77
1009.90 1009.79 1009.64 1009.56 1009.61 1009.85 1010.29 1010.91 1011.61 1012.29 1012.83 1013.13 1013.12 1012.80 1012.21 1011.45 1010.63 1009.90 1009.37 1009.10 1009.14 1009.45 1010.00 1010.67 1011.39 1012.06 1012.65 1013.12 1013.48 1013.76 1014.00 1014.23 1014.46 1014.71 1014.94 1015.14 1015.27 1015.30 1015.23 1015.07 1014.84 1014.59 1014.35 1014.18
1009.81 1009.69 1009.56 1009.51 1009.60 1009.89 1010.38 1011.02 1011.74 1012.41 1012.92 1013.16 1013.10 1012.70 1012.03 1011.19 1010.30 1009.51 1008.91 1008.60 1008.60 1008.88 1009.39 1010.05 1010.75 1011.41 1011.99 1012.46 1012.83 1013.12 1013.39 1013.66 1013.94 1014.23 1014.52 1014.77 1014.94 1015.00 1014.94 1014.77 1014.51 1014.20 1013.91 1013.68
1009.83 1009.73 1009.63 1009.60 1009.72 1010.02 1010.51 1011.14 1011.81 1012.43 1012.88 1013.06 1012.93 1012.47 1011.76 1010.87 1009.96 1009.13 1008.52 1008.18 1008.15 1008.40 1008.88 1009.50 1010.16 1010.80 1011.35 1011.82 1012.19 1012.51 1012.81 1013.12 1013.47 1013.83 1014.18 1014.49 1014.71 1014.81 1014.77 1014.59 1014.31 1013.97 1013.63 1013.35
1009.93 1009.86 1009.78 1009.78 1009.90 1010.19 1010.63 1011.19 1011.79 1012.32 1012.68 1012.79 1012.60 1012.11 1011.39 1010.51 1009.62 1008.82 1008.22 1007.88 1007.84 1008.07 1008.51 1009.08 1009.70 1010.29 1010.82 1011.27 1011.65 1011.99 1012.33 1012.69 1013.09 1013.52 1013.94 1014.31 1014.59 1014.74 1014.72 1014.56 1014.28 1013.92 1013.56 1013.24
1010.04 1010.00 1009.96 1009.96 1010.07 1010.31 1010.68 1011.15 1011.64 1012.07 1012.33 1012.37 1012.15 1011.67 1010.98 1010.16 1009.33 1008.60 1008.05 1007.76 1007.72 1007.93 1008.34 1008.85 1009.41 1009.95 1010.44 1010.87 1011.24 1011.60 1011.97 1012.38 1012.83 1013.32 1013.80 1014.23 1014.56 1014.75 1014.77 1014.64 1014.37 1014.03 1013.66 1013.34
1010.13 1010.12 1010.10 1010.10 1010.18 1010.37 1010.66 1011.02 1011.40 1011.72 1011.90 1011.89 1011.66 1011.22 1010.60 1009.88 1009.16 1008.54 1008.08 1007.84 1007.83 1008.03 1008.39 1008.84 1009.34 1009.81 1010.24 1010.63 1010.99 1011.34 1011.73 1012.17 1012.66 1013.19 1013.71 1014.18 1014.55 1014.79 1014.85 1014.76 1014.53 1014.22 1013.88 1013.58
1010.18 1010.21 1010.20 1010.20 1010.26 1010.38 1010.59 1010.85 1011.13 1011.35 1011.48 1011.44 1011.24 1010.86 1010.35 1009.76 1009.19 1008.69 1008.34 1008.17 1008.19 1008.37 1008.68 1009.07 1009.48 1009.88 1010.24 1010.57 1010.89 1011.23 1011.60 1012.04 1012.54 1013.08 1013.62 1014.11 1014.51 1014.77 1014.88 1014.83 1014.66 1014.40 1014.12 1013.87
1010.24 1010.29 1010.30 1010.31 1010.33 1010.41 1010.55 1010.73 1010.93 1011.09 1011.17 1011.14 1010.98 1010.69 1010.30 1009.87 1009.44 1009.09 1008.85 1008.75 1008.79 1008.95 1009.21 1009.52 1009.84 1010.14 1010.42 1010.67 1010.93 1011.22 1011.56 1011.98 1012.45 1012.97 1013.49 1013.97 1014.37 1014.65 1014.79 1014.79 1014.67 1014.49 1014.28 1014.09
1010.36 1010.43 1010.46 1010.47 1010.49 1010.54 1010.63 1010.75 1010.89 1011.00 1011.07 1011.05 1010.95 1010.76 1010.50 1010.21 1009.94 1009.71 1009.57 1009.53 1009.59 1009.74 1009.93 1010.15 1010.37 1010.57 1010.75 1010.92 1011.10 1011.32 1011.60 1011.95 1012.37 1012.83 1013.31 1013.75 1014.13 1014.40 1014.55 1014.59 1014.54 1014.42 1014.29 1014.18
1010.59 1010.68 1010.73 1010.76 1010.78 1010.82 1010.88 1010.97 1011.06 1011.15 1011.21 1011.22 1011.17 1011.07 1010.93 1010.77 1010.62 1010.51 1010.45 1010.46 1010.52 1010.64 1010.77 1010.91 1011.03 1011.13 1011.21 1011.29 1011.38 1011.52 1011.72 1011.99 1012.32 1012.70 1013.10 1013.48 1013.80 1014.05 1014.20 1014.27 1014.25 1014.20 1014.14 1014.10
1010.95 1011.06 1011.14 1011.19 1011.23 1011.27 1011.32 1011.39 1011.46 1011.53 1011.58 1011.61 1011.60 1011.57 1011.51 1011.45 1011.40 1011.37 1011.38 1011.41 1011.48 1011.56 1011.64 1011.71 1011.75 1011.76 1011.75 1011.74 1011.76 1011.81 1011.93 1012.11 1012.34 1012.63 1012.93 1013.22 1013.47 1013.67 1013.80 1013.87 1013.89 1013.88 1013.87 1013.89
1011.41 1011.55 1011.65 1011.73 1011.79 1011.85 1011.90 1011.95 1012.00 1012.05 1012.09 1012.12 1012.14 1012.14 1012.14 1012.14 1012.15 1012.18 1012.23 1012.29 1012.35 1012.41 1012.45 1012.47 1012.45 1012.40 1012.33 1012.26 1012.21 1012.20 1012.23 1012.33 1012.47 1012.65 1012.85 1013.05 1013.22 1013.35 1013.45 1013.50 1013.53 1013.55 1013.57 1013.63
1011.90 1012.06 1012.19 1012.30 1012.38 1012.45 1012.50 1012.55 1012.58 1012.60 1012.63 1012.64 1012.66 1012.67 1012.70 1012.73 1012.78 1012.84 1012.91 1012.99 1013.05 1013.11 1013.13 1013.12 1013.07 1013.00 1012.91 1012.81 1012.72 1012.66 1012.64 1012.66 1012.72 1012.80 1012.91 1013.01 1013.10 1013.17 1013.21 1013.24 1013.27 1013.29 1013.34 1013.41
1012.34 1012.51 1012.67 1012.80 1012.90 1012.98 1013.03 1013.07 1013.08 1013.08 1013.07 1013.07 1013.07 1013.07 1013.10 1013.14 1013.20 1013.28 1013.37 1013.45 1013.53 1013.59 1013.62 1013.62 1013.59 1013.52 1013.43 1013.34 1013.25 1013.17 1013.12 1013.09 1013.08 1013.08 1013.10 1013.12 1013.13 1013.13 1013.13 1013.14 1013.15 1013.18 1013.24 1013.32
1012.64 1012.83 1013.00 1013.15 1013.26 1013.35 1013.40 1013.43 1013.42 1013.40 1013.37 1013.33 1013.31 1013.30 1013.31 1013.35 1013.41 1013.49 1013.59 1013.69 1013.79 1013.87 1013.92 1013.95 1013.96 1013.93 1013.88 1013.82 1013.75 1013.68 1013.62 1013.55 1013.50 1013.45 1013.39 1013.34 1013.29 1013.24 1013.20 1013.18 1013.19 1013.23 1013.30 1013.40
1012.80 1012.98 1013.16 1013.31 1013.43 1013.53 1013.58 1013.60 1013.58 1013.54 1013.49 1013.44 1013.39 1013.37 1013.36 1013.39 1013.45 1013.53 1013.63 1013.75 1013.86 1013.97 1014.06 1014.14 1014.19 1014.22 1014.23 1014.21 1014.18 1014.14 1014.08 1014.00 1013.92 1013.82 1013.72 1013.61 1013.51 1013.43 1013.36 1013.34 1013.35 1013.41 1013.50 1013.63
1012.83 1013.01 1013.17 1013.32 1013.45 1013.54 1013.60 1013.61 1013.60 1013.56 1013.50 1013.44 1013.38 1013.34 1013.33 1013.35 1013.40 1013.47 1013.58 1013.70 1013.83 1013.96 1014.09 1014.21 1014.31 1014.40 1014.46 1014.50 1014.51 1014.49 1014.44 1014.37 1014.26 1014.14 1014.00 1013.85 1013.72 1013.62 1013.55 1013.53 1013.56 1013.65 1013.79 1013.95
1012.83 1012.98 1013.13 1013.26 1013.38 1013.48 1013.54 1013.56 1013.56 1013.53 1013.48 1013.42 1013.37 1013.33 1013.32 1013.32 1013.36 1013.43 1013.52 1013.63 1013.76 1013.91 1014.05 1014.20 1014.34 1014.47 1014.58 1014.66 1014.71 1014.71 1014.67 1014.60 1014.48 1014.33 1014.17 1014.01 1013.86 1013.75 1013.69 1013.70 1013.77 1013.91 1014.09 1014.31
1012.89 1013.00 1013.13 1013.24 1013.35 1013.44 1013.51 1013.55 1013.56 1013.55 1013.53 1013.49 1013.45 1013.42 1013.40 1013.40 1013.42 1013.47 1013.53 1013.62 1013.73 1013.86 1014.01 1014.16 1014.31 1014.46 1014.59 1014.70 1014.76 1014.78 1014.75 1014.67 1014.55 1014.39 1014.21 1014.04 1013.89 1013.79 1013.75 1013.80 1013.91 1014.11 1014.36 1014.64
Thickness
5843 5838 5833 5840 5845 5844 5841 5835 5832 5837 5846 5839 5835 5836 5839 5840 5835 5831 5827 5824 5821 5819 5822 5819 5814 5810 5804 5798 5792 5787 5783 5779 5774 5771 5767 5764 5762 5761 5760 5758 5755 5753 5752 5751
5826 5826 5841 5846 5843 5839 5835 5830 5831 5836 5842 5837 5835 5836 5844 5842 5837 5836 5831 5827 5825 5823 5822 5818 5815 5811 5806 5800 5796 5791 5786 5783 5778 5775 5770 5767 5765 5764 5762 5760 5757 5755 5753 5752
5819 5833 5841 5834 5830 5828 5830 5830 5831 5829 5833 5837 5832 5829 5836 5841 5842 5839 5837 5835 5833 5828 5824 5820 5816 5813 5809 5805 5800 5797 5791 5786 5781 5777 5773 5769 5765 5763 5762 5759 5758 5756 5754 5753
5822 5833 5829 5827 5827 5829 5822 5838 5834 5829 5822 5825 5826 5817 5833 5839 5836 5835 5836 5836 5835 5833 5830 5825 5820 5816 5813 5810 5806 5800 5794 5788 5784 5779 5776 5770 5766 5763 5762 5761 5760 5757 5754 5753
5815 5823 5821 5819 5827 5832 5831 5838 5833 5829 5824 5821 5825 5818 5831 5839 5831 5834 5838 5839 5840 5838 5834 5829 5825 5821 5818 5815 5810 5803 5796 5790 5785 5781 5777 5771 5769 5767 5765 5762 5759 5757 5755 5753
5820 5828 5829 5828 5835 5835 5831 5827 5823 5825 5824 5802 5816 5812 5817 5834 5832 5837 5841 5840 5840 5840 5837 5833 5829 5825 5819 5816 5811 5804 5796 5790 5786 5781 5778 5773 5769 5766 5763 5760 5759 5757 5756 5754
5800 5812 5825 5830 5820 5822 5823 5811 5797 5793 5796 5800 5818 5809 5817 5837 5841 5840 5840 5840 5841 5840 5837 5832 5828 5823 5819 5815 5811 5805 5798 5791 5787 5783 5779 5775 5771 5767 5763 5761 5760 5758 5757 5755
5786 5791 5813 5821 5819 5815 5817 5817 5795 5784 5790 5805 5805 5804 5824 5840 5841 5842 5843 5842 5841 5840 5838 5834 5830 5825 5820 5816 5811 5806 5799 5793 5789 5785 5780 5777 5772 5770 5768 5764 5763 5760 5757 5756
5792 5792 5815 5820 5826 5823 5811 5813 5827 5811 5803 5798 5807 5814 5826 5836 5834 5836 5837 5837 5836 5837 5836 5833 5830 5826 5822 5817 5812 5808 5801 5794 5790 5787 5782 5777 5773 5771 5769 5765 5763 5761 5757 5756
5799 5787 5803 5810 5816 5815 5820 5819 5811 5801 5781 5777 5794 5801 5811 5820 5824 5828 5829 5831 5832 5833 5833 5831 5829 5827 5824 5819 5814 5809 5802 5796 5792 5788 5783 5779 5775 5771 5768 5766 5762 5760 5757 5755
5796 5784 5789 5797 5795 5799 5801 5802 5804 5803 5801 5784 5781 5799 5824 5821 5824 5825 5826 5828 5829 5830 5830 5828 5827 5826 5822 5818 5813 5807 5801 5795 5791 5788 5784 5779 5775 5772 5769 5765 5762 5759 5757 5754
5788 5786 5780 5788 5802 5807 5806 5804 5800 5786 5783 5791 5790 5800 5825 5824 5827 5825 5825 5825 5826 5827 5828 5826 5824 5821 5818 5814 5810 5805 5800 5796 5791 5787 5783 5779 5775 5772 5768 5765 5761 5758 5755 5753
5779 5774 5761 5767 5778 5789 5793 5797 5801 5800 5793 5788 5784 5796 5819 5819 5819 5820 5819 5819 5820 5820 5821 5821 5819 5815 5812 5810 5807 5803 5798 5794 5791 5787 5782 5778 5774 5771 5767 5764 5761 5757 5754 5750
5773 5770 5766 5765 5776 5785 5781 5786 5791 5790 5786 5784 5788 5797 5806 5807 5807 5810 5812 5813 5814 5814 5813 5813 5812 5809 5807 5806 5803 5799 5796 5794 5790 5785 5780 5776 5772 5769 5766 5763 5760 5756 5752 5748
5765 5761 5765 5773 5780 5782 5780 5780 5782 5782 5787 5785 5791 5794 5798 5801 5803 5804 5806 5806 5805 5805 5806 5806 5804 5802 5801 5800 5798 5795 5793 5790 5787 5782 5778 5774 5771 5767 5763 5759 5755 5752 5749 5746
5755 5753 5755 5756 5767 5770 5768 5775 5777 5778 5783 5785 5787 5787 5797 5799 5799 5797 5798 5798 5797 5798 5800 5801 5800 5798 5796 5795 5793 5791 5787 5785 5782 5778 5774 5771 5767 5763 5758 5754 5750 5747 5744 5740
5746 5743 5741 5747 5756 5754 5751 5767 5771 5773 5779 5780 5776 5781 5785 5784 5784 5786 5790 5791 5792 5793 5795 5795 5794 5793 5792 5791 5790 5786 5783 5781 5777 5773 5770 5767 5762 5758 5754 5750 5745 5741 5738 5735
5731 5732 5737 5742 5736 5723 5754 5770 5770 5767 5768 5773 5772 5774 5775 5776 5779 5783 5785 5785 5785 5787 5788 5790 5790 5790 5789 5789 5787 5783 5780 5776 5772 5769 5766 5762 5758 5754 5749 5745 5740 5736 5733 5730
5726 5723 5729 5732 5727 5735 5745 5754 5758 5754 5753 5763 5762 5763 5767 5772 5773 5775 5777 5778 5778 5781 5783 5784 5786 5786 5785 5783 5782 5779 5775 5772 5767 5764 5761 5757 5754 5748 5744 5739 5734 5732 5728 5725
5716 5716 5719 5719 5716 5719 5737 5749 5754 5749 5740 5753 5754 5753 5756 5760 5759 5763 5766 5768 5770 5772 5775 5777 5779 5780 5778 5777 5776 5772 5770 5766 5762 5759 5756 5752 5748 5744 5739 5735 5731 5727 5724 5721
5702 5702 5706 5709 5710 5726 5731 5740 5741 5725 5731 5742 5746 5745 5747 5747 5749 5752 5756 5758 5760 5762 5765 5768 5770 5769 5769 5769 5768 5764 5763 5761 5759 5755 5751 5747 5743 5739 5736 5731 5726 5722 5718 5715
5696 5699 5697 5702 5700 5707 5720 5725 5722 5722 5730 5733 5734 5736 5736 5738 5740 5742 5744 5746 5749 5751 5755 5758 5758 5759 5760 5760 5758 5756 5754 5755 5752 5748 5744 5740 5737 5735 5731 5725 5720 5715 5711 5707
5688 5691 5698 5698 5699 5702 5708 5709 5712 5716 5717 5720 5723 5726 5727 5727 5729 5731 5733 5736 5739 5742 5744 5747 5747 5748 5749 5750 5750 5747 5747 5746 5742 5738 5735 5732 5730 5726 5723 5719 5714 5709 5706 5704
5676 5680 5681 5682 5690 5692 5696 5699 5703 5706 5707 5711 5714 5715 5717 5717 5719 5720 5722 5725 5727 5730 5733 5736 5737 5737 5737 5738 5739 5739 5739 5737 5733 5729 5727 5723 5721 5718 5714 5712 5709 5705 5702 5699
5665 5667 5669 5670 5677 5680 5683 5686 5690 5693 5697 5699 5702 5705 5706 5707 5709 5710 5711 5713 5715 5718 5721 5723 5724 5725 5725 5727 5728 5729 5729 5727 5723 5720 5718 5715 5714 5711 5705 5701 5697 5695 5693 5691
5655 5655 5656 5662 5667 5668 5670 5675 5679 5681 5684 5687 5689 5692 5696 5698 5698 5699 5700 5702 5704 5706 5709 5711 5713 5714 5715 5716 5717 5719 5719 5718 5715 5712 5709 5707 5705 5701 5698 5692 5686 5680 5679 5675